Location: *
(45.0500°N, 12.0500°E)
Time: 03:14:20
(UTC+00:00)

Aureole 1 Rocket - Pass Details

Date: 09 April 2020
Orbit: 379 x 1379 km, 73.9° (Epoch: 06 June)

Event Time Altitude Azimuth Distance (km) Brightness Sun altitude
Rises 18:34:25 0° 194° (SSW) 4,222 7.3 -8.3°
Reaches altitude 10° 18:37:26 10° 193° (SSW) 3,151 6.6 -8.8°
Maximum altitude 18:44:53 77° 109° (ESE) 1,051 4.1 -10.0°
Drops below altitude 10° 18:50:41 10° 25° (NNE) 2,477 6.1 -11.0°
Sets 18:52:49 0° 24° (NNE) 3,275 6.8 -11.3°
